Погода в Давиде

Панама     8°25′00″N   82°25′24″W
темп.,
°C
ветер,
м/с
пор.,
м/с
влажн.,
%
обл.,
%
осадки,
мм/ч
давл.,
гПа
погр.,
м
26 июня, вс
вс2601:00+22ссз119399 0.3 101316
04:00+22ссз119052 0.0 101111
07:00+23сз018911 0.0 101344
10:00+26ююв117315 0.0 1014647
13:00+28ю3270100 2.5 1012992
16:00+25ююз1283100 5.1 1011242
19:00+23ссв1292100 10.8 101368
22:00+22ссз2394100 13.6 1015117
27 июня, пн
пн2701:00+22ююв1192100 14.3 101319
04:00+21сз2293100 0.0 101358
07:00+22зюз1189100 0.1 101440
10:00+26юз227827 0.1 1015632
13:00+28з336895 1.3 10121121
16:00+27зюз1276100 5.9 1010366
19:00+23вюв2297100 15.6 101279
22:00+22юв1298100 12.4 1015102
28 июня, вт
вт2801:00+22в1298100 25.6 1014125
04:00+22зсз1296100 5.3 101355
07:00+22з1193100 7.1 101429
10:00+26з117568 0.1 1014429
13:00+27ююз437539 1.3 1013759
16:00+25ююз2383100 4.5 1012679
19:00+23юз119072 10.2 101313
22:00+23св119084 0.8 101513
29 июня, ср
ср2901:00+22ссв119027 0.8 101411
04:00+22с118999 0.0 101311
07:00+23с118655 0.0 101321
10:00+26ю217413 0.0 1015699
13:00+28ю326976 0.8 10131130
16:00+26ю228399 6.2 1012404
19:00+23з229389 9.6 101374
22:00+23з119385 0.3 101435
30 июня, чт
чт3001:00+23с119234 0.3 101311
04:00+22ссз11919 0.0 101211
07:00+23с118747 0.0 101332
10:00+25ююв118085 0.0 1014366
13:00+29ююз326725 0.3 10121023
16:00+27ююз337656 4.6 1010698
19:00+23ююз129499 11.9 101168
22:00+23з119478 2.6 101351